CLUSTER II-FM6 (SALSA)

Last updated on Nov. 14, 2019, 4:22 a.m. UTC

1 26411U 00041B   19319.42542968  .00000000  00000-0  00000+0 0  9991
2 26411 131.0886 341.1807 5349379 184.0629   0.7852  0.44224211 20393
UTC
Height (km)
Latitude
Longitude
Inclination
Orbital Period
UTC large
Height (km)
Speed (km/s)
/
Latitude / Longitude
Inclination (degrees)
Orbital Period (minutes)
Azimuth
Elevation
Range (km)
Doppler Factor
iOS Compass Heading
iOS Angle

Next 30 passes for location: Hong Kong

Rise time Rise Azimuth (degrees) Set time Set Azimuth (degrees) Duration Max altitude (degrees)

No matching passes for this satellites